BEIDOU-3 M24

Last updated on Wed Jul 02 2025 00:02:33 GMT+0000 (Coordinated Universal Time)

1 44542U 19061A 25182.07386037 .00000065 00000+0 00000+0 0 9997 2 44542 54.4115 194.5686 0008092 349.6957 10.3139 1.86229308 39257
UTC large
Height (km)
Speed (km/s)
/
Latitude / Longitude
Inclination (degrees)
Orbital Period (minutes)
Azimuth
Elevation
Range (km)
Doppler Factor

Next 0 passes for location: London (51.5072 / 0.1276)

Sorry there are no passes over London.